Location: Newark
(42.9277°N, 71.8621°W)
Time: 21:30:44
(UTC+00:00)

S-56A Canister/Altair - Visible Passes

Search period start: 25 May 2020 00:00
Search period end: 04 June 2020 00:00
Orbit: 633 x 2499 km, 38.9° (Epoch: 24 May)

Date Brightness Start Highest point End Pass type
(mag) Time Alt. Az. Time Alt. Az. Time Alt. Az.
29 May 9.8 08:17:01 10° S 08:20:59 18° SE 08:25:54 10° E visible
30 May 9.8 07:45:38 10° SSE 07:48:31 14° SE 07:51:51 10° ESE visible
31 May 9.9 07:15:36 10° SE 07:16:03 10° SE 07:16:32 10° SE visible
02 Jun 9.0 08:08:45 11° SSW 08:13:10 30° SSE 08:19:19 10° E visible
03 Jun 9.1 07:37:41 15° S 07:40:39 25° SE 07:45:54 10° E visible
